Theta_e
306 297 294 298 299 301 300 300 315 321 326 321 319 317 322 327 330 331 326 323 325 331 333 336 341 344 344 343 341 342 344 341 343 345 344 341 340 340 342 344 349 351 351 352
299 295 301 304 303 302 300 300 314 319 324 321 321 320 327 328 329 328 325 322 325 328 332 334 338 340 340 339 343 343 345 342 342 345 346 346 346 345 345 347 349 351 352 351
296 301 306 304 301 300 298 297 312 313 319 321 319 315 320 325 329 328 327 325 327 327 330 332 336 338 339 341 343 344 345 342 341 347 346 342 341 344 344 343 345 351 352 352
300 305 305 302 301 300 292 302 314 316 312 308 317 300 312 318 323 326 327 326 325 326 331 333 334 336 338 341 345 346 345 344 346 346 342 340 337 334 342 342 346 351 353 352
298 301 301 300 302 303 299 305 311 315 309 310 312 305 306 318 320 324 328 328 329 329 330 331 333 337 339 344 346 346 345 344 346 350 344 340 337 340 345 348 346 348 351 350
301 306 302 301 305 305 306 311 311 309 305 298 306 307 308 313 320 324 328 328 331 332 331 332 334 339 339 343 347 345 344 342 343 349 348 343 342 342 344 344 342 343 347 350
300 301 304 305 299 301 302 296 290 294 298 296 307 306 307 319 325 327 329 331 333 333 335 330 331 337 338 339 344 348 344 341 344 347 347 346 342 342 344 342 340 342 344 346
292 292 300 305 301 297 297 297 291 289 291 294 307 302 309 320 323 326 329 329 332 333 337 334 334 336 338 340 342 347 346 342 345 348 346 349 344 342 343 344 342 343 345 346
292 294 305 305 305 302 296 294 299 294 293 296 302 307 314 322 321 323 322 329 332 332 335 335 337 340 342 342 341 343 347 345 345 349 348 349 347 343 343 343 344 343 347 349
297 292 299 305 304 303 300 302 298 294 289 288 299 301 303 313 322 326 323 327 330 328 333 336 337 338 340 340 341 343 346 345 344 348 350 350 350 347 344 342 342 347 348 350
296 295 296 300 297 297 300 298 297 296 293 291 293 298 319 320 324 325 328 329 327 327 329 332 334 340 339 341 340 342 340 347 346 346 349 350 351 352 350 350 349 347 347 348
299 294 290 295 301 303 302 299 296 293 291 299 297 303 322 321 323 324 325 326 329 330 332 335 333 334 340 337 338 339 340 342 345 346 347 346 347 352 350 350 352 351 346 345
298 292 290 293 295 299 295 297 294 295 297 294 294 300 322 322 322 324 324 326 328 328 328 330 332 333 335 337 336 338 340 340 345 344 343 341 341 346 347 350 351 351 348 345
306 291 292 290 290 295 293 297 296 293 291 295 299 307 315 318 318 321 322 322 323 326 326 326 327 329 331 335 339 337 340 345 343 344 342 340 340 344 343 346 347 349 351 347
299 291 292 294 298 297 296 297 298 294 298 295 305 308 315 318 316 316 317 317 316 317 319 320 320 324 328 330 333 335 336 337 343 340 341 341 343 345 341 341 344 349 350 352
297 292 294 293 298 297 295 298 302 305 309 307 308 307 316 316 315 313 313 313 313 314 315 314 316 318 319 325 329 330 330 331 335 334 337 345 344 341 340 341 341 345 348 351
295 293 293 290 295 294 290 295 299 307 309 310 304 310 315 313 312 311 312 312 312 311 310 311 313 313 317 317 323 326 327 328 327 328 331 335 340 341 343 342 343 344 343 343
292 292 291 290 290 284 293 299 304 309 310 312 311 313 313 312 311 312 311 309 308 308 308 307 309 312 313 315 318 321 322 322 324 325 326 329 329 332 336 337 339 341 344 344
294 290 288 286 286 292 298 299 300 303 303 313 309 308 307 308 307 306 311 309 306 306 306 306 311 310 310 312 316 317 316 317 318 318 319 324 325 326 330 331 331 336 339 340
293 292 290 287 285 286 295 301 305 304 297 310 309 306 305 306 299 302 307 307 306 307 308 309 310 311 311 311 312 310 310 312 312 314 316 318 320 322 322 324 328 330 330 335
289 290 287 286 285 291 299 302 305 292 293 308 311 307 305 300 302 305 308 306 307 307 308 309 308 307 307 308 308 306 308 308 311 314 315 316 318 318 321 320 321 319 320 325
290 287 288 289 286 284 304 302 295 298 299 304 305 303 302 303 304 303 303 304 306 306 307 307 306 305 306 307 306 305 306 308 309 310 311 313 315 317 320 319 320 317 317 316
288 293 291 293 292 298 302 300 301 300 299 301 303 304 304 303 302 302 302 302 303 303 303 304 302 302 303 304 304 303 305 306 306 306 307 309 312 312 313 314 316 317 316 313
294 297 293 294 298 299 301 302 304 303 301 302 302 302 303 301 302 301 301 301 301 302 301 301 301 300 299 301 303 303 303 305 304 303 304 306 306 307 308 311 312 311 311 312
295 295 293 293 297 300 302 302 303 303 303 302 302 302 300 301 301 300 299 300 300 300 300 300 298 298 298 299 300 302 302 302 300 300 301 301 302 302 305 307 307 309 309 305
296 294 290 290 297 296 298 301 305 303 302 302 301 301 301 302 299 300 300 299 299 299 299 298 298 298 298 299 299 300 300 300 298 297 298 299 299 301 302 303 304 305 304 304
Wind_Speed
4 5 5 8 6 7 3 5 4 6 9 7 7 14 20 17 13 15 14 10 10 17 16 18 18 18 14 11 9 10 8 6 5 2 4 3 2 2 1 3 4 2 3 5
6 5 9 6 7 6 5 3 5 8 7 9 5 14 19 19 22 18 14 10 14 13 14 15 16 18 14 13 11 9 9 8 5 3 2 3 3 3 2 2 4 3 4 4
6 7 9 6 7 8 8 6 9 6 9 4 6 3 4 3 9 12 12 9 16 18 17 15 15 17 12 11 13 11 9 8 6 6 4 4 4 3 2 1 2 3 5 5
7 7 5 7 8 8 7 9 13 18 8 6 6 4 5 8 9 13 15 11 15 14 16 17 15 15 14 12 13 12 9 7 6 7 6 6 4 3 3 3 2 3 5 6
10 6 7 7 13 8 11 6 10 17 5 8 2 3 2 9 9 14 8 12 12 17 17 19 16 17 13 13 14 13 11 8 6 6 5 4 3 2 2 2 4 2 4 4
9 6 7 10 9 10 7 4 8 7 4 2 11 6 5 10 18 21 11 10 13 12 15 15 16 17 15 12 12 13 12 8 7 6 6 6 8 6 4 2 3 2 2 3
5 7 10 6 6 4 5 7 2 2 1 8 13 4 7 11 16 22 17 11 9 10 5 10 15 16 14 14 12 11 11 8 8 7 7 7 7 7 7 6 4 4 3 2
3 7 5 3 8 7 3 9 7 6 6 2 10 7 8 12 9 5 7 8 7 9 8 8 7 9 16 16 14 13 12 8 8 7 7 7 7 5 4 6 4 4 4 4
3 5 6 3 5 10 3 2 7 3 1 4 4 2 7 9 4 8 7 8 10 10 14 7 5 13 10 9 4 8 12 10 9 9 6 6 6 6 6 6 5 5 4 4
5 3 3 5 1 3 7 4 3 4 1 3 4 5 2 4 6 6 7 7 9 13 12 11 6 10 13 12 11 9 3 4 3 6 8 7 8 7 6 5 6 6 6 7
4 3 8 4 1 6 4 3 6 5 5 4 5 2 3 9 10 8 9 8 8 9 9 7 1 6 11 13 9 8 8 2 4 5 4 8 9 8 7 6 6 7 5 6
1 4 1 7 5 4 5 5 5 6 3 3 5 2 6 13 12 10 9 13 11 11 9 7 5 4 2 6 5 7 5 6 5 3 3 5 5 7 8 7 7 6 7 5
5 4 3 9 9 9 5 4 6 5 3 4 7 3 7 14 11 8 13 12 9 10 11 10 9 11 8 6 6 11 8 6 3 5 7 6 5 5 6 6 6 6 6 6
3 4 4 3 6 3 5 9 1 7 4 4 3 17 11 14 18 14 7 10 10 9 11 11 12 12 6 6 4 6 6 5 7 3 4 4 4 7 7 6 5 6 7 6
4 3 4 4 7 2 5 10 7 3 5 6 14 18 13 15 15 13 20 13 13 13 13 13 10 7 8 7 6 4 5 7 6 6 7 6 3 2 5 8 5 4 5 6
6 3 6 7 6 7 5 15 7 7 9 13 17 13 16 18 16 15 15 15 13 13 12 11 11 11 8 6 6 5 7 7 4 6 4 3 4 3 3 7 6 5 5 6
4 3 4 3 7 5 7 7 6 3 3 18 12 20 23 20 19 16 15 13 11 12 12 9 8 8 10 7 5 6 5 6 7 9 7 6 6 2 4 5 2 5 5 4
4 3 3 3 5 3 6 6 5 11 6 18 21 19 17 18 13 11 10 14 11 11 11 8 7 7 7 6 8 8 8 8 9 8 6 6 6 6 5 5 4 3 3 4
6 4 3 3 3 4 8 9 3 8 5 16 21 19 20 21 20 10 8 11 12 8 7 7 7 6 7 9 9 10 10 9 10 10 9 9 7 6 5 6 6 5 5 5
6 6 6 3 3 3 2 3 10 7 2 3 19 21 24 19 13 8 9 14 13 11 10 12 10 10 11 7 8 9 7 8 10 9 8 7 8 7 6 6 6 4 4 4
5 4 4 0 2 1 4 5 3 4 9 7 13 17 11 6 6 12 13 13 13 12 13 11 11 9 6 5 6 7 6 8 6 7 7 7 7 7 5 5 4 5 5 5
2 1 0 0 3 2 5 4 6 5 4 8 9 8 14 18 17 14 13 12 14 13 12 11 10 8 6 6 7 6 7 4 6 7 9 9 9 7 7 7 5 6 5 6
2 5 5 4 5 6 5 6 4 4 8 5 14 12 18 17 15 14 11 10 10 11 9 7 8 9 7 7 6 7 6 5 6 6 7 8 8 9 9 7 9 7 6 5
5 2 4 5 6 3 4 4 6 9 10 7 7 7 10 13 13 12 12 10 9 8 8 7 9 8 6 6 5 3 5 6 7 6 7 7 7 9 8 6 6 5 6 7
5 3 3 1 4 3 3 3 6 7 8 9 8 7 8 13 11 11 10 10 8 7 6 7 7 6 4 4 5 4 4 5 5 6 6 6 6 7 7 6 5 6 5 3
2 1 4 5 3 4 8 6 8 8 8 9 8 7 7 12 10 10 9 7 8 8 6 7 7 7 3 4 3 3 3 4 4 4 4 4 4 5 6 7 10 4 6 14
Wind_Direction
205 99 201 232 192 230 296 356 61 90 100 130 112 146 187 192 206 226 188 182 156 160 157 150 154 157 159 154 154 154 153 151 133 134 126 110 175 73 262 177 203 150 185 130
23 193 217 228 251 263 267 134 103 74 98 59 150 143 181 204 210 209 178 172 157 155 162 155 149 157 160 162 150 153 163 155 163 124 156 126 141 174 175 191 208 186 182 151
166 232 205 204 259 272 259 167 182 152 109 27 264 73 138 286 210 198 185 170 167 157 162 161 155 160 157 144 153 155 169 167 143 142 99 73 64 53 75 21 267 210 185 172
222 250 208 216 245 205 257 211 168 146 132 170 221 218 228 170 250 191 193 174 175 167 162 165 159 162 163 154 153 157 161 168 150 152 132 154 152 149 211 183 248 230 193 183
240 218 200 203 227 200 238 202 182 165 124 117 262 115 263 144 195 206 201 174 164 178 160 168 164 167 166 154 159 164 166 173 162 151 152 157 140 156 170 164 176 219 213 203
245 250 174 214 238 221 231 86 65 56 58 76 194 159 210 182 176 205 197 200 165 167 165 167 163 167 170 164 158 165 173 180 161 168 161 185 157 168 141 144 152 215 191 229
299 249 248 207 251 349 105 74 78 86 256 229 159 177 244 184 180 195 177 170 136 84 54 151 169 170 167 170 167 166 172 189 167 178 165 182 179 177 172 168 170 182 183 205
213 316 186 217 174 178 140 141 154 183 172 182 151 202 267 193 169 139 137 135 101 86 62 80 104 174 173 174 171 170 176 179 171 170 186 186 180 176 191 178 177 207 203 193
16 271 324 190 194 128 254 95 195 97 88 94 184 17 28 61 75 133 108 114 148 121 115 86 96 114 83 51 40 197 176 183 174 178 177 181 190 195 200 195 193 200 216 202
233 247 276 289 102 32 133 170 67 19 245 127 347 64 308 81 77 57 126 142 132 116 107 117 101 86 92 74 40 22 186 198 224 200 179 193 192 196 211 172 208 226 221 191
42 98 296 29 137 169 35 56 58 111 118 159 140 4 287 104 92 87 82 111 99 88 99 91 114 132 123 98 47 19 350 35 199 194 237 206 201 197 204 188 210 219 203 194
32 133 274 234 276 224 141 139 112 116 273 93 105 81 91 100 88 88 81 90 92 79 80 99 152 77 71 123 124 318 287 332 63 356 192 226 220 215 201 206 203 203 203 195
319 10 26 352 358 359 35 31 128 114 88 194 121 173 132 106 92 74 88 79 86 91 79 83 86 88 80 92 164 218 218 222 40 55 31 13 3 320 242 220 204 194 203 194
75 60 111 153 217 214 353 354 67 112 111 158 91 140 162 143 136 120 73 83 96 107 92 92 78 68 88 90 149 175 205 185 119 107 357 314 331 21 2 323 266 203 204 202
91 86 27 345 359 41 43 359 334 131 177 131 165 142 152 141 132 129 120 108 88 88 83 77 73 66 71 65 57 61 60 47 113 150 166 193 243 341 20 330 339 320 236 213
355 356 47 7 360 37 48 16 26 106 113 77 120 102 137 130 123 120 114 113 103 95 92 90 90 82 72 74 56 29 42 49 55 65 65 87 159 187 199 266 269 339 304 247
43 68 53 333 339 3 27 342 12 42 60 135 127 143 139 137 132 131 126 119 119 109 94 86 83 69 61 47 44 51 23 23 44 52 41 38 72 77 114 196 249 333 328 330
96 49 74 156 6 56 245 287 94 71 58 103 116 134 131 125 111 106 113 114 108 96 93 81 79 77 54 43 41 47 30 23 23 25 31 40 45 39 24 30 41 357 344 347
77 102 54 108 135 290 32 334 307 118 33 129 125 119 116 117 106 96 122 113 111 102 84 77 84 74 57 51 53 53 32 22 22 13 14 12 15 25 35 32 2 14 351 339
54 72 109 81 104 179 140 351 351 77 66 172 130 136 135 131 119 150 128 112 100 87 79 84 78 67 61 35 68 62 39 26 9 355 351 352 4 10 16 11 357 351 342 314
353 9 112 74 204 340 336 337 71 149 225 157 160 153 149 122 143 129 126 100 96 95 93 97 83 82 80 72 76 66 43 29 340 345 349 356 355 345 350 339 337 336 336 328
129 70 4 130 142 187 323 357 152 236 343 126 125 118 104 115 115 119 113 112 102 96 87 88 87 74 57 57 66 67 59 10 0 350 351 349 351 356 349 344 325 336 354 358
348 171 174 142 206 241 321 98 59 94 89 61 109 113 121 123 125 123 119 113 111 110 102 98 92 80 50 45 57 45 359 18 22 8 355 349 354 0 2 3 6 355 351 354
319 126 98 71 319 42 81 90 106 99 98 100 90 116 124 129 131 124 124 122 115 106 101 98 91 79 65 55 58 57 15 1 13 9 6 1 3 354 353 358 0 1 6 2
202 59 143 41 288 55 12 103 135 113 111 106 97 104 119 117 126 127 122 119 122 118 110 103 103 102 98 65 50 59 57 52 27 12 360 356 351 347 349 354 339 341 355 39
351 171 137 208 238 203 241 194 160 135 138 142 126 107 119 124 128 125 124 131 129 129 126 116 119 116 110 103 98 61 61 64 58 13 346 336 346 350 354 346 338 348 345 326